CW4185 Weather Reports


Display with metric or nautical units.
time (UTC)temp
F
wind
direction
speed
MPH
gust
MPH
rain 1hr
in
rain 24hr
in
rain mn
in
humidity
%
barometer
mb
20260504220646 75 169 7.0 11.0 0.00 0.00 0.00 43 1014.6
20260504220147 75 164 8.0 11.0 0.00 0.00 0.00 44 1014.6
20260504215646 75 186 5.0 13.0 0.00 0.00 0.00 43 1014.6
20260504215146 76 180 7.0 9.0 0.00 0.00 0.00 43 1014.6
20260504214646 75 149 8.0 13.0 0.00 0.00 0.00 43 1014.2
20260504214147 75 179 9.0 12.0 0.00 0.00 0.00 44 1014.2
20260504213646 75 165 6.0 13.0 0.00 0.00 0.00 44 1014.2
20260504213146 75 169 11.0 13.0 0.00 0.00 0.00 44 1014.6
20260504212647 75 143 9.0 12.0 0.00 0.00 0.00 44 1014.6
20260504212147 75 168 11.0 13.0 0.00 0.00 0.00 44 1014.6
20260504211647 75 207 8.0 10.0 0.00 0.00 0.00 43 1014.9
20260504211147 75 180 7.0 10.0 0.00 0.00 0.00 43 1014.9
20260504210648 75 195 8.0 13.0 0.00 0.00 0.00 42 1014.6
20260504210147 75 154 11.0 12.0 0.00 0.00 0.00 42 1014.6
20260504205647 76 160 10.0 13.0 0.00 0.00 0.00 41 1014.9
20260504205150 75 180 12.0 14.0 0.00 0.00 0.00 40 1014.9
20260504204647 75 159 7.0 13.0 0.00 0.00 0.00 40 1014.9
20260504204147 75 181 8.0 11.0 0.00 0.00 0.00 41 1015.2
20260504203646 75 164 13.0 14.0 0.00 0.00 0.00 40 1015.2
20260504203146 75 180 9.0 14.0 0.00 0.00 0.00 40 1015.2
20260504202650 76 155 7.0 15.0 0.00 0.00 0.00 38 1015.2
20260504202146 75 120 4.0 8.0 0.00 0.00 0.00 40 1015.2
20260504201647 76 169 7.0 12.0 0.00 0.00 0.00 38 1015.6
20260504201146 76 176 4.0 13.0 0.00 0.00 0.00 38 1015.6
20260504200647 75 246 8.0 12.0 0.00 0.00 0.00 39 1015.6
20260504200146 76 178 7.0 11.0 0.00 0.00 0.00 39 1015.9
20260504195646 77 180 9.0 14.0 0.00 0.00 0.00 39 1015.6
20260504195147 75 42 5.0 14.0 0.00 0.00 0.00 39 1015.9
20260504194646 76 240 5.0 15.0 0.00 0.00 0.00 37 1015.9
20260504194146 76 202 6.0 13.0 0.00 0.00 0.00 38 1015.9
20260504193646 75 185 4.0 12.0 0.00 0.00 0.00 38 1016.3
20260504193147 76 186 5.0 11.0 0.00 0.00 0.00 40 1015.9
20260504192647 76 175 9.0 12.0 0.00 0.00 0.00 39 1015.9
20260504192146 76 194 12.0 13.0 0.00 0.00 0.00 39 1015.9
20260504191648 75 159 10.0 16.0 0.00 0.00 0.00 40 1016.3
20260504191146 75 193 8.0 13.0 0.00 0.00 0.00 40 1015.9
20260504190647 75 169 9.0 14.0 0.00 0.00 0.00 40 1016.3
20260504190149 76 170 10.0 17.0 0.00 0.00 0.00 40 1016.6
20260504185646 75 171 5.0 11.0 0.00 0.00 0.00 40 1016.6
20260504185147 75 183 13.0 17.0 0.00 0.00 0.00 40 1016.6
20260504184646 75 171 7.0 13.0 0.00 0.00 0.00 40 1016.3
20260504184147 75 169 7.0 12.0 0.00 0.00 0.00 40 1016.9
20260504183647 75 183 6.0 12.0 0.00 0.00 0.00 41 1016.6
20260504183147 75 159 8.0 17.0 0.00 0.00 0.00 40 1016.9
20260504182647 75 205 6.0 12.0 0.00 0.00 0.00 42 1016.9
20260504182146 75 179 10.0 17.0 0.00 0.00 0.00 41 1016.9
20260504181647 75 177 7.0 13.0 0.00 0.00 0.00 42 1016.9
20260504181148 74 213 7.0 13.0 0.00 0.00 0.00 42 1016.6
20260504180647 74 197 6.0 11.0 0.00 0.00 0.00 42 1016.6
20260504180147 75 185 8.0 15.0 0.00 0.00 0.00 42 1016.9
20260504175647 75 195 9.0 15.0 0.00 0.00 0.00 43 1016.9
20260504175147 75 195 8.0 15.0 0.00 0.00 0.00 44 1016.6
20260504174647 75 219 10.0 11.0 0.00 0.00 0.00 43 1016.9
20260504174146 75 205 7.0 15.0 0.00 0.00 0.00 41 1017.3
20260504173646 75 158 8.0 10.0 0.00 0.00 0.00 44 1016.9
20260504173147 75 168 3.0 7.0 0.00 0.00 0.00 45 1016.6
20260504172647 75 207 6.0 7.0 0.00 0.00 0.00 44 1016.9
20260504172147 75 202 7.0 11.0 0.00 0.00 0.00 44 1016.9
20260504171647 75 173 3.0 9.0 0.00 0.00 0.00 45 1016.9
20260504171148 75 161 6.0 11.0 0.00 0.00 0.00 46 1016.9
20260504170650 74 152 9.0 14.0 0.00 0.00 0.00 45 1016.9
20260504170146 75 140 5.0 13.0 0.00 0.00 0.00 46 1016.9
20260504160148 74 165 6.0 8.0 0.00 0.00 0.00 46 1017.3
20260504151147 73 153 6.0 9.0 0.00 0.00 0.00 49 1017.9
20260504150647 72 185 5.0 10.0 0.00 0.00 0.00 46 1017.9
20260504150146 72 168 5.0 9.0 0.00 0.00 0.00 46 1017.6
20260504141149 71 194 4.0 5.0 0.00 0.00 0.00 56 1017.9
20260504140647 70 166 3.0 4.0 0.00 0.00 0.00 59 1017.9
20260504140146 70 152 1.0 4.0 0.00 0.00 0.00 56 1017.6
20260504130648 67 223 3.0 3.0 0.00 0.00 0.00 66 1017.9
20260504130146 66 180 0.0 2.0 0.00 0.00 0.00 68 1017.6
20260504120148 60 162 1.0 1.0 0.00 0.00 0.00 82 1017.3
20260504110646 58 141 0.0 2.0 0.00 0.00 0.00 85 1017.3
20260504110147 58 145 1.0 1.0 0.00 0.00 0.00 84 1016.9
20260504100149 60 193 1.0 2.0 0.00 0.00 0.00 79 1017.3
20260504081646 60 210 1.0 1.0 0.00 0.00 0.00 79 1017.3
20260504081147 60 235 1.0 1.0 0.00 0.00 0.00 79 1016.9
20260504080647 60 174 1.0 2.0 0.00 0.00 0.00 78 1017.3
20260504080147 60 229 0.0 1.0 0.00 0.00 0.00 78 1017.3
20260504070148 62 166 3.0 4.0 0.00 0.00 0.00 76 1017.6
20260504060146 63 197 2.0 2.0 0.00 0.00 0.00 72 1018.3
20260504050646 64 171 3.0 5.0 0.00 0.00 0.00 66 1019.0
20260504050146 64 210 2.0 3.0 0.00 0.00 0.00 66 1019.0
20260504045646 64 203 2.0 3.0 0.00 0.00 0.00 66 1019.0
20260504045147 64 209 3.0 4.0 0.00 0.00 0.00 66 1019.0
20260504044646 64 205 1.0 3.0 0.00 0.00 0.00 66 1019.0
20260504044146 64 199 3.0 3.0 0.00 0.00 0.00 66 1019.0
20260504043647 64 199 2.0 3.0 0.00 0.00 0.00 65 1019.0
20260504043146 64 212 2.0 4.0 0.00 0.00 0.00 66 1019.0
20260504042647 64 155 3.0 5.0 0.00 0.00 0.00 67 1019.0
20260504042146 64 221 3.0 4.0 0.00 0.00 0.00 67 1019.0
20260504041646 64 220 5.0 6.0 0.00 0.00 0.00 67 1019.0
20260504041146 64 226 4.0 8.0 0.00 0.00 0.00 68 1019.3
20260504040646 64 205 5.0 6.0 0.00 0.00 0.00 69 1019.0
20260504040146 65 216 4.0 6.0 0.00 0.00 0.00 68 1019.0
20260504035647 65 222 6.0 9.0 0.00 0.00 0.00 68 1019.3
20260504035147 65 252 3.0 6.0 0.00 0.00 0.00 67 1019.0
20260504034646 65 203 4.0 4.0 0.00 0.00 0.00 66 1019.0
20260504034149 65 176 3.0 5.0 0.00 0.00 0.00 66 1019.0
20260504033647 65 199 4.0 5.0 0.00 0.00 0.00 67 1019.0
20260504033146 65 177 2.0 5.0 0.00 0.00 0.00 67 1019.0
20260504032651 65 168 4.0 5.0 0.00 0.00 0.00 67 1019.0
20260504032147 66 163 1.0 3.0 0.00 0.00 0.00 66 1019.0
20260504031647 66 180 2.0 3.0 0.00 0.00 0.00 66 1019.0
20260504031146 65 169 2.0 3.0 0.00 0.00 0.00 66 1019.0
20260504030646 66 161 3.0 3.0 0.00 0.00 0.00 66 1019.0
20260504030147 66 151 2.0 3.0 0.00 0.00 0.00 65 1019.0
20260504025647 66 155 3.0 3.0 0.00 0.00 0.00 64 1019.0
20260504025147 66 141 3.0 3.0 0.00 0.00 0.00 63 1018.6
20260504024646 66 167 1.0 2.0 0.00 0.00 0.00 62 1019.0
20260504024151 67 44 0.0 3.0 0.00 0.00 0.00 60 1019.0
20260504023649 67 146 3.0 3.0 0.00 0.00 0.00 59 1018.6
20260504023146 67 117 0.0 2.0 0.00 0.00 0.00 59 1018.6
20260504022647 67 142 2.0 3.0 0.00 0.00 0.00 58 1019.0
20260504022147 67 139 3.0 4.0 0.00 0.00 0.00 58 1018.6
20260504021646 68 149 2.0 2.0 0.00 0.00 0.00 57 1018.6
20260504021146 68 127 0.0 2.0 0.00 0.00 0.00 55 1018.3
20260504020646 68 127 3.0 4.0 0.00 0.00 0.00 54 1018.6
20260504020146 69 108 2.0 3.0 0.00 0.00 0.00 53 1018.3
20260504015646 69 165 2.0 4.0 0.00 0.00 0.00 51 1018.3
20260504015147 69 171 2.0 3.0 0.00 0.00 0.00 49 1018.3
20260504014647 69 197 2.0 3.0 0.00 0.00 0.00 49 1018.3
20260504014146 69 205 2.0 4.0 0.00 0.00 0.00 49 1018.3
20260504013646 69 197 3.0 4.0 0.00 0.00 0.00 48 1017.9
20260504013146 70 199 2.0 3.0 0.00 0.00 0.00 47 1018.3
20260504012647 70 212 1.0 3.0 0.00 0.00 0.00 46 1017.9
20260504012146 70 220 1.0 1.0 0.00 0.00 0.00 46 1017.9
20260504011648 71 190 0.0 2.0 0.00 0.00 0.00 44 1018.3
20260504011148 71 212 1.0 1.0 0.00 0.00 0.00 44 1017.9
20260504010646 71 255 0.0 2.0 0.00 0.00 0.00 43 1017.9
20260504010146 72 223 1.0 1.0 0.00 0.00 0.00 42 1017.9
20260504005646 72 196 0.0 2.0 0.00 0.00 0.00 41 1017.9
20260504005146 73 265 0.0 2.0 0.00 0.00 0.00 40 1017.9
20260504004646 73 315 0.0 1.0 0.00 0.00 0.00 39 1017.6
20260504004146 73 354 2.0 2.0 0.00 0.00 0.00 39 1017.9
20260504003647 73 316 2.0 2.0 0.00 0.00 0.00 39 1017.6
20260504003147 73 295 2.0 3.0 0.00 0.00 0.00 38 1017.6
20260504002646 74 277 0.0 3.0 0.00 0.00 0.00 38 1017.6
20260504002147 74 337 0.0 4.0 0.00 0.00 0.00 38 1017.6
20260504001646 75 286 3.0 5.0 0.00 0.00 0.00 37 1017.6
20260504001146 75 279 2.0 4.0 0.00 0.00 0.00 36 1017.3
20260504000646 75 300 2.0 5.0 0.00 0.00 0.00 36 1017.6
20260504000148 75 294 3.0 5.0 0.00 0.00 0.00 36 1017.3
20260503235646 75 311 3.0 4.0 0.00 0.00 0.00 35 1017.6
20260503235146 75 12 2.0 5.0 0.00 0.00 0.00 36 1017.6
20260503234646 75 317 1.0 5.0 0.00 0.00 0.00 35 1017.6
20260503234146 75 309 3.0 6.0 0.00 0.00 0.00 36 1017.9
20260503233646 75 287 4.0 9.0 0.00 0.00 0.00 35 1017.9
20260503233146 76 298 4.0 6.0 0.00 0.00 0.00 36 1017.6
20260503232646 75 330 5.0 5.0 0.00 0.00 0.00 36 1017.9
20260503232147 75 312 7.0 11.0 0.00 0.00 0.00 35 1017.6
20260503231646 75 301 3.0 9.0 0.00 0.00 0.00 35 1017.9
20260503231147 76 293 9.0 11.0 0.00 0.00 0.00 35 1017.6
20260503230647 76 306 6.0 7.0 0.00 0.00 0.00 35 1017.9
20260503230146 76 280 5.0 7.0 0.00 0.00 0.00 35 1017.6
20260503225647 75 289 8.0 9.0 0.00 0.00 0.00 35 1017.9
20260503225146 76 301 5.0 7.0 0.00 0.00 0.00 34 1017.9
20260503224647 77 315 4.0 7.0 0.00 0.00 0.00 35 1017.9
20260503224146 77 309 3.0 4.0 0.00 0.00 0.00 34 1017.9
20260503223647 77 311 3.0 7.0 0.00 0.00 0.00 35 1017.9
20260503223146 76 282 1.0 5.0 0.00 0.00 0.00 35 1017.9
20260503222647 76 30 7.0 9.0 0.00 0.00 0.00 34 1017.9
20260503222147 76 338 2.0 7.0 0.00 0.00 0.00 35 1017.9
20260503221646 75 31 2.0 7.0 0.00 0.00 0.00 35 1017.9
20260503221146 76 283 6.0 9.0 0.00 0.00 0.00 34 1017.9